Time,TemperatureF,DewpointF,PressureIn,WindDirection,WindDirectionDegrees,WindSpeedMPH,WindSpeedGustMPH,Humidity,HourlyPrecipIn,Conditions,Clouds,dailyrainin,SoftwareType,DateUTC
2013-07-03 00:01:00,79.9,75.3,30.08,NW,305,0.0,0.0,86,0.00,,,0.02,Wunderground v.1.15,2013-07-03 04:01:00,
2013-07-03 00:03:00,79.9,75.3,30.08,NW,305,1.0,1.0,86,0.00,,,0.02,Wunderground v.1.15,2013-07-03 04:03:00,
2013-07-03 00:04:00,79.9,75.3,30.08,NW,305,0.0,1.0,86,0.00,,,0.00,Wunderground v.1.15,2013-07-03 04:04:00,
2013-07-03 00:09:00,80.0,75.8,30.08,NNE,22,0.0,3.0,87,0.00,,,0.00,Wunderground v.1.15,2013-07-03 04:09:00,
2013-07-03 00:14:00,80.1,75.9,30.08,East,101,4.0,4.0,87,0.00,,,0.00,Wunderground v.1.15,2013-07-03 04:14:00,
2013-07-03 00:19:00,80.3,76.1,30.08,NE,56,2.0,4.0,87,0.00,,,0.00,Wunderground v.1.15,2013-07-03 04:19:00,
2013-07-03 00:24:00,80.6,76.0,30.08,ESE,105,2.0,5.0,86,0.00,,,0.00,Wunderground v.1.15,2013-07-03 04:24:00,
2013-07-03 00:29:00,80.9,76.3,30.08,ESE,113,3.0,6.0,86,0.00,,,0.00,Wunderground v.1.15,2013-07-03 04:29:00,
2013-07-03 00:31:00,81.1,76.5,30.08,NE,55,3.0,5.0,86,0.00,,,0.00,Wunderground v.1.15,2013-07-03 04:31:00,
2013-07-03 00:32:00,81.1,76.5,30.08,East,85,4.0,5.0,86,0.00,,,0.00,Wunderground v.1.15,2013-07-03 04:32:00,
2013-07-03 00:37:00,81.2,76.3,30.07,ESE,108,2.0,6.0,85,0.00,,,0.00,Wunderground v.1.15,2013-07-03 04:37:00,
2013-07-03 00:42:00,81.4,76.5,30.07,ENE,61,5.0,5.0,85,0.00,,,0.00,Wunderground v.1.15,2013-07-03 04:42:00,
2013-07-03 00:45:00,81.5,76.6,30.07,East,90,2.0,6.0,85,0.00,,,0.00,Wunderground v.1.15,2013-07-03 04:45:00,
2013-07-03 00:46:00,81.5,76.6,30.07,ESE,123,2.0,6.0,85,0.00,,,0.00,Wunderground v.1.15,2013-07-03 04:46:00,
2013-07-03 00:51:00,81.6,76.6,30.07,NE,56,3.0,5.0,85,0.00,,,0.00,Wunderground v.1.15,2013-07-03 04:51:00,
2013-07-03 00:53:00,81.6,76.3,30.07,East,92,1.0,5.0,84,0.00,,,0.00,Wunderground v.1.15,2013-07-03 04:53:00,
2013-07-03 00:58:00,81.6,75.9,30.07,ESE,114,3.0,6.0,83,0.00,,,0.00,Wunderground v.1.15,2013-07-03 04:58:00,
2013-07-03 01:03:00,81.7,75.7,30.07,East,96,2.0,6.0,82,0.00,,,0.00,Wunderground v.1.15,2013-07-03 05:03:00,
2013-07-03 01:07:00,81.8,76.1,30.06,ENE,74,1.0,6.0,83,0.00,,,0.00,Wunderground v.1.15,2013-07-03 05:07:00,
2013-07-03 01:12:00,81.8,75.8,30.06,East,96,5.0,7.0,82,0.00,,,0.00,Wunderground v.1.15,2013-07-03 05:12:00,
2013-07-03 01:17:00,81.8,75.8,30.06,East,90,2.0,7.0,82,0.00,,,0.00,Wunderground v.1.15,2013-07-03 05:17:00,
2013-07-03 01:19:00,81.9,75.9,30.06,ESE,104,5.0,7.0,82,0.00,,,0.00,Wunderground v.1.15,2013-07-03 05:19:00,
2013-07-03 01:24:00,81.9,75.9,30.06,East,100,2.0,6.0,82,0.00,,,0.00,Wunderground v.1.15,2013-07-03 05:24:00,
2013-07-03 01:29:00,82.0,76.3,30.06,ENE,59,2.0,6.0,83,0.00,,,0.00,Wunderground v.1.15,2013-07-03 05:29:00,
2013-07-03 01:34:00,82.0,76.7,30.06,SE,127,4.0,4.0,84,0.00,,,0.00,Wunderground v.1.15,2013-07-03 05:34:00,
2013-07-03 01:40:00,82.1,77.1,30.05,SE,124,0.0,2.0,85,0.00,,,0.00,Wunderground v.1.15,2013-07-03 05:40:00,
2013-07-03 01:45:00,82.1,77.1,30.05,NE,52,4.0,4.0,85,0.00,,,0.00,Wunderground v.1.15,2013-07-03 05:45:00,
2013-07-03 01:50:00,82.0,77.0,30.05,East,99,4.0,5.0,85,0.00,,,0.00,Wunderground v.1.15,2013-07-03 05:50:00,
2013-07-03 01:55:00,82.0,77.0,30.05,NE,55,3.0,5.0,85,0.00,,,0.00,Wunderground v.1.15,2013-07-03 05:55:00,
2013-07-03 01:57:00,82.0,77.0,30.05,East,88,2.0,5.0,85,0.00,,,0.00,Wunderground v.1.15,2013-07-03 05:57:00,
2013-07-03 01:58:00,81.9,76.9,30.05,East,84,0.0,5.0,85,0.00,,,0.00,Wunderground v.1.15,2013-07-03 05:58:00,
2013-07-03 02:03:00,81.9,77.3,30.05,East,90,2.0,5.0,86,0.00,,,0.00,Wunderground v.1.15,2013-07-03 06:03:00,
2013-07-03 02:08:00,81.9,77.3,30.04,ESE,104,3.0,5.0,86,0.00,,,0.00,Wunderground v.1.15,2013-07-03 06:08:00,
2013-07-03 02:13:00,81.9,77.3,30.04,ESE,123,2.0,7.0,86,0.00,,,0.00,Wunderground v.1.15,2013-07-03 06:13:00,
2013-07-03 02:14:00,81.9,77.3,30.04,ESE,120,2.0,7.0,86,0.00,,,0.00,Wunderground v.1.15,2013-07-03 06:14:00,
2013-07-03 02:16:00,81.9,77.3,30.04,ENE,72,2.0,7.0,86,0.00,,,0.00,Wunderground v.1.15,2013-07-03 06:16:00,
2013-07-03 02:17:00,81.9,77.3,30.04,ENE,75,2.0,7.0,86,0.00,,,0.00,Wunderground v.1.15,2013-07-03 06:17:00,
2013-07-03 02:22:00,81.9,77.3,30.03,NE,56,0.0,4.0,86,0.00,,,0.00,Wunderground v.1.15,2013-07-03 06:22:00,
2013-07-03 02:25:00,81.9,77.3,30.03,South,186,2.0,5.0,86,0.00,,,0.00,Wunderground v.1.15,2013-07-03 06:25:00,
2013-07-03 02:26:00,81.8,77.2,30.03,ENE,63,4.0,6.0,86,0.00,,,0.00,Wunderground v.1.15,2013-07-03 06:26:00,
2013-07-03 02:32:00,81.8,76.8,30.03,East,100,3.0,7.0,85,0.00,,,0.00,Wunderground v.1.15,2013-07-03 06:32:00,
2013-07-03 02:37:00,81.8,76.8,30.03,East,88,5.0,7.0,85,0.00,,,0.00,Wunderground v.1.15,2013-07-03 06:37:00,
2013-07-03 02:43:00,81.8,76.8,30.04,NE,55,2.0,4.0,85,0.00,,,0.00,Wunderground v.1.15,2013-07-03 06:43:00,
2013-07-03 02:48:00,81.8,76.5,30.03,East,81,2.0,6.0,84,0.00,,,0.00,Wunderground v.1.15,2013-07-03 06:48:00,
2013-07-03 02:53:00,81.8,76.5,30.04,ESE,111,5.0,9.0,84,0.00,,,0.00,Wunderground v.1.15,2013-07-03 06:53:00,
2013-07-03 02:55:00,81.8,76.5,30.04,SE,139,4.0,9.0,84,0.00,,,0.00,Wunderground v.1.15,2013-07-03 06:55:00,
2013-07-03 03:00:00,81.8,76.5,30.04,ENE,70,2.0,3.0,84,0.00,,,0.00,Wunderground v.1.15,2013-07-03 07:00:00,
2013-07-03 03:05:00,81.8,76.5,30.04,East,90,4.0,5.0,84,0.00,,,0.00,Wunderground v.1.15,2013-07-03 07:05:00,
2013-07-03 03:11:00,81.9,76.9,30.03,NE,54,3.0,4.0,85,0.00,,,0.00,Wunderground v.1.15,2013-07-03 07:11:00,
2013-07-03 03:16:00,81.8,76.8,30.03,ENE,66,5.0,10.0,85,0.00,,,0.00,Wunderground v.1.15,2013-07-03 07:16:00,
2013-07-03 03:17:00,81.8,76.8,30.03,ENE,65,5.0,10.0,85,0.00,,,0.00,Wunderground v.1.15,2013-07-03 07:17:00,
2013-07-03 03:22:00,81.8,76.5,30.03,East,88,5.0,6.0,84,0.00,,,0.00,Wunderground v.1.15,2013-07-03 07:22:00,
2013-07-03 03:27:00,81.6,75.9,30.02,ENE,75,5.0,11.0,83,0.00,,,0.00,Wunderground v.1.15,2013-07-03 07:27:00,
2013-07-03 03:32:00,81.0,75.3,30.03,NE,49,3.0,9.0,83,0.00,,,0.00,Wunderground v.1.15,2013-07-03 07:32:00,
2013-07-03 03:37:00,80.5,74.9,30.03,East,90,3.0,11.0,83,0.00,,,0.00,Wunderground v.1.15,2013-07-03 07:37:00,
2013-07-03 03:38:00,80.5,74.9,30.03,East,86,0.0,11.0,83,0.00,,,0.00,Wunderground v.1.15,2013-07-03 07:38:00,
2013-07-03 03:43:00,80.2,74.9,30.03,ENE,75,5.0,5.0,84,0.00,,,0.00,Wunderground v.1.15,2013-07-03 07:43:00,
2013-07-03 03:48:00,80.0,74.7,30.03,SE,133,4.0,7.0,84,0.00,,,0.00,Wunderground v.1.15,2013-07-03 07:48:00,
2013-07-03 03:50:00,80.0,74.4,30.03,ENE,71,3.0,4.0,83,0.00,,,0.00,Wunderground v.1.15,2013-07-03 07:50:00,
2013-07-03 03:55:00,80.0,74.7,30.03,ENE,62,2.0,6.0,84,0.00,,,0.00,Wunderground v.1.15,2013-07-03 07:55:00,
2013-07-03 04:01:00,80.1,75.2,30.03,ENE,73,2.0,3.0,85,0.00,,,0.00,Wunderground v.1.15,2013-07-03 08:01:00,
2013-07-03 04:06:00,80.1,75.5,30.03,SE,131,0.0,6.0,86,0.00,,,0.00,Wunderground v.1.15,2013-07-03 08:06:00,
2013-07-03 04:07:00,80.1,75.5,30.03,ESE,119,4.0,6.0,86,0.00,,,0.00,Wunderground v.1.15,2013-07-03 08:07:00,
2013-07-03 04:09:00,80.1,75.5,30.03,East,82,1.0,6.0,86,0.00,,,0.00,Wunderground v.1.15,2013-07-03 08:09:00,
2013-07-03 04:14:00,80.0,75.1,30.03,East,83,5.0,5.0,85,0.00,,,0.00,Wunderground v.1.15,2013-07-03 08:14:00,
2013-07-03 04:20:00,80.0,74.7,30.03,NE,56,3.0,4.0,84,0.00,,,0.00,Wunderground v.1.15,2013-07-03 08:20:00,
2013-07-03 04:25:00,80.1,75.2,30.03,ENE,66,3.0,10.0,85,0.00,,,0.00,Wunderground v.1.15,2013-07-03 08:25:00,
2013-07-03 04:30:00,80.2,75.3,30.03,ESE,102,2.0,4.0,85,0.00,,,0.00,Wunderground v.1.15,2013-07-03 08:30:00,
2013-07-03 04:35:00,80.3,75.4,30.04,NE,54,5.0,5.0,85,0.00,,,0.00,Wunderground v.1.15,2013-07-03 08:35:00,
2013-07-03 04:39:00,80.3,75.4,30.04,East,99,2.0,5.0,85,0.00,,,0.00,Wunderground v.1.15,2013-07-03 08:39:00,
2013-07-03 04:44:00,80.4,75.5,30.03,ENE,58,2.0,5.0,85,0.00,,,0.00,Wunderground v.1.15,2013-07-03 08:44:00,
2013-07-03 04:45:00,80.4,75.8,30.03,East,86,5.0,5.0,86,0.00,,,0.00,Wunderground v.1.15,2013-07-03 08:45:00,
2013-07-03 04:50:00,80.3,75.7,30.03,East,98,1.0,2.0,86,0.00,,,0.00,Wunderground v.1.15,2013-07-03 08:50:00,
2013-07-03 04:54:00,80.2,76.0,30.03,NE,54,2.0,3.0,87,0.00,,,0.00,Wunderground v.1.15,2013-07-03 08:54:00,
2013-07-03 04:55:00,80.1,75.9,30.03,NE,54,3.0,3.0,87,0.00,,,0.00,Wunderground v.1.15,2013-07-03 08:55:00,
2013-07-03 05:00:00,79.9,75.7,30.04,ENE,68,1.0,1.0,87,0.00,,,0.00,Wunderground v.1.15,2013-07-03 09:00:00,
2013-07-03 05:05:00,79.7,75.8,30.04,ENE,67,2.0,2.0,88,0.00,,,0.00,Wunderground v.1.15,2013-07-03 09:05:00,
2013-07-03 05:10:00,79.6,76.1,30.04,ENE,65,1.0,2.0,89,0.00,,,0.00,Wunderground v.1.15,2013-07-03 09:10:00,
2013-07-03 05:15:00,79.5,76.0,30.04,SE,137,2.0,4.0,89,0.00,,,0.00,Wunderground v.1.15,2013-07-03 09:15:00,
2013-07-03 05:20:00,79.5,76.0,30.04,ESE,104,3.0,6.0,89,0.00,,,0.00,Wunderground v.1.15,2013-07-03 09:20:00,
2013-07-03 05:25:00,79.5,76.0,30.04,SE,137,4.0,6.0,89,0.00,,,0.00,Wunderground v.1.15,2013-07-03 09:25:00,
2013-07-03 05:30:00,79.6,76.1,30.04,ENE,58,3.0,3.0,89,0.00,,,0.00,Wunderground v.1.15,2013-07-03 09:30:00,
2013-07-03 05:36:00,79.8,76.3,30.04,East,86,2.0,4.0,89,0.00,,,0.00,Wunderground v.1.15,2013-07-03 09:36:00,
2013-07-03 05:41:00,80.0,76.5,30.04,East,98,4.0,4.0,89,0.00,,,0.00,Wunderground v.1.15,2013-07-03 09:41:00,
2013-07-03 05:46:00,80.2,76.7,30.04,ENE,58,2.0,5.0,89,0.00,,,0.00,Wunderground v.1.15,2013-07-03 09:46:00,
2013-07-03 05:49:00,80.3,76.8,30.03,SSE,160,5.0,6.0,89,0.00,,,0.00,Wunderground v.1.15,2013-07-03 09:49:00,
2013-07-03 05:50:00,80.3,76.8,30.03,NE,38,5.0,6.0,89,0.00,,,0.00,Wunderground v.1.15,2013-07-03 09:50:00,
2013-07-03 05:55:00,80.5,77.0,30.04,SE,135,5.0,7.0,89,0.00,,,0.00,Wunderground v.1.15,2013-07-03 09:55:00,
2013-07-03 06:01:00,80.5,76.6,30.04,NE,48,3.0,4.0,88,0.00,,,0.00,Wunderground v.1.15,2013-07-03 10:01:00,
2013-07-03 06:04:00,80.7,76.8,30.04,SSE,160,3.0,5.0,88,0.00,,,0.00,Wunderground v.1.15,2013-07-03 10:04:00,
2013-07-03 06:05:00,80.7,76.8,30.04,East,92,3.0,5.0,88,0.00,,,0.00,Wunderground v.1.15,2013-07-03 10:05:00,
2013-07-03 06:10:00,80.9,77.0,30.04,NE,43,5.0,6.0,88,0.00,,,0.00,Wunderground v.1.15,2013-07-03 10:10:00,
2013-07-03 06:15:00,80.7,76.5,30.04,ENE,66,2.0,6.0,87,0.00,,,0.00,Wunderground v.1.15,2013-07-03 10:15:00,
2013-07-03 06:21:00,80.5,75.9,30.04,ENE,71,3.0,6.0,86,0.00,,,0.00,Wunderground v.1.15,2013-07-03 10:21:00,
2013-07-03 06:26:00,80.3,75.0,30.05,SE,137,5.0,6.0,84,0.00,,,0.00,Wunderground v.1.15,2013-07-03 10:26:00,
2013-07-03 06:32:00,80.4,75.1,30.04,East,79,4.0,4.0,84,0.00,,,0.00,Wunderground v.1.15,2013-07-03 10:32:00,
2013-07-03 06:37:00,80.6,76.0,30.04,ESE,109,1.0,6.0,86,0.00,,,0.00,Wunderground v.1.15,2013-07-03 10:37:00,
2013-07-03 06:43:00,80.8,76.6,30.04,East,100,1.0,5.0,87,0.00,,,0.00,Wunderground v.1.15,2013-07-03 10:43:00,
2013-07-03 06:48:00,80.9,76.7,30.04,ENE,70,1.0,5.0,87,0.00,,,0.00,Wunderground v.1.15,2013-07-03 10:48:00,
2013-07-03 06:49:00,80.9,76.7,30.04,East,91,2.0,5.0,87,0.00,,,0.00,Wunderground v.1.15,2013-07-03 10:49:00,
2013-07-03 06:54:00,81.1,76.5,30.05,East,96,3.0,6.0,86,0.00,,,0.00,Wunderground v.1.15,2013-07-03 10:54:00,
2013-07-03 06:55:00,81.1,76.5,30.05,East,88,2.0,6.0,86,0.00,,,0.00,Wunderground v.1.15,2013-07-03 10:55:00,
2013-07-03 06:57:00,81.1,76.5,30.05,SE,142,0.0,6.0,86,0.00,,,0.00,Wunderground v.1.15,2013-07-03 10:57:00,
2013-07-03 07:02:00,81.3,76.7,30.05,East,79,1.0,3.0,86,0.00,,,0.00,Wunderground v.1.15,2013-07-03 11:02:00,
2013-07-03 07:07:00,81.5,76.9,30.05,ESE,115,2.0,6.0,86,0.00,,,0.00,Wunderground v.1.15,2013-07-03 11:07:00,
2013-07-03 07:08:00,81.6,77.0,30.05,East,94,0.0,6.0,86,0.00,,,0.00,Wunderground v.1.15,2013-07-03 11:08:00,
2013-07-03 07:09:00,81.6,77.0,30.05,East,94,1.0,6.0,86,0.00,,,0.00,Wunderground v.1.15,2013-07-03 11:09:00,
2013-07-03 07:14:00,81.6,77.0,30.05,ESE,107,2.0,6.0,86,0.00,,,0.00,Wunderground v.1.15,2013-07-03 11:14:00,
2013-07-03 07:19:00,81.5,76.6,30.05,East,98,3.0,6.0,85,0.00,,,0.00,Wunderground v.1.15,2013-07-03 11:19:00,
2013-07-03 07:23:00,81.6,76.6,30.05,NE,48,4.0,7.0,85,0.00,,,0.00,Wunderground v.1.15,2013-07-03 11:23:00,
2013-07-03 07:25:00,81.6,76.6,30.05,ESE,108,4.0,7.0,85,0.00,,,0.00,Wunderground v.1.15,2013-07-03 11:25:00,
2013-07-03 07:31:00,81.8,76.8,30.05,East,95,5.0,10.0,85,0.00,,,0.00,Wunderground v.1.15,2013-07-03 11:31:00,
2013-07-03 07:36:00,81.8,76.1,30.05,ESE,115,3.0,12.0,83,0.00,,,0.00,Wunderground v.1.15,2013-07-03 11:36:00,
2013-07-03 07:41:00,82.0,76.3,30.06,SE,127,3.0,8.0,83,0.00,,,0.00,Wunderground v.1.15,2013-07-03 11:41:00,
2013-07-03 07:45:00,82.2,76.9,30.06,SE,126,4.0,8.0,84,0.00,,,0.00,Wunderground v.1.15,2013-07-03 11:45:00,
2013-07-03 07:50:00,82.5,77.2,30.05,ESE,106,1.0,4.0,84,0.00,,,0.00,Wunderground v.1.15,2013-07-03 11:50:00,
2013-07-03 07:56:00,82.8,76.7,30.06,ESE,106,3.0,10.0,82,0.00,,,0.00,Wunderground v.1.15,2013-07-03 11:56:00,
2013-07-03 07:59:00,83.0,76.9,30.06,ESE,108,3.0,10.0,82,0.00,,,0.00,Wunderground v.1.15,2013-07-03 11:59:00,
2013-07-03 08:02:00,83.2,76.8,30.06,East,91,4.0,6.0,81,0.00,,,0.00,Wunderground v.1.15,2013-07-03 12:02:00,
2013-07-03 08:07:00,83.4,77.0,30.06,East,96,4.0,9.0,81,0.00,,,0.00,Wunderground v.1.15,2013-07-03 12:07:00,
2013-07-03 08:12:00,83.6,77.1,30.06,East,82,3.0,9.0,81,0.00,,,0.00,Wunderground v.1.15,2013-07-03 12:12:00,
2013-07-03 08:16:00,83.7,77.2,30.06,East,86,7.0,9.0,81,0.00,,,0.00,Wunderground v.1.15,2013-07-03 12:16:00,
2013-07-03 08:20:00,83.9,77.4,30.07,ESE,105,5.0,6.0,81,0.00,,,0.00,Wunderground v.1.15,2013-07-03 12:20:00,
2013-07-03 08:25:00,84.1,77.6,30.07,ESE,123,5.0,6.0,81,0.00,,,0.00,Wunderground v.1.15,2013-07-03 12:25:00,
2013-07-03 08:30:00,84.1,78.0,30.07,NE,54,6.0,10.0,82,0.00,,,0.00,Wunderground v.1.15,2013-07-03 12:30:00,
2013-07-03 08:35:00,83.9,77.1,30.07,East,86,2.0,10.0,80,0.00,,,0.00,Wunderground v.1.15,2013-07-03 12:35:00,
2013-07-03 08:40:00,83.7,76.9,30.07,ESE,104,2.0,3.0,80,0.00,,,0.00,Wunderground v.1.15,2013-07-03 12:40:00,
2013-07-03 08:45:00,83.5,77.4,30.07,ESE,117,3.0,5.0,82,0.00,,,0.00,Wunderground v.1.15,2013-07-03 12:45:00,
2013-07-03 08:47:00,83.5,77.4,30.07,ENE,71,1.0,5.0,82,0.00,,,0.00,Wunderground v.1.15,2013-07-03 12:47:00,
2013-07-03 08:52:00,83.5,77.4,30.07,ENE,63,4.0,7.0,82,0.00,,,0.00,Wunderground v.1.15,2013-07-03 12:52:00,
2013-07-03 08:58:00,83.6,77.5,30.08,ENE,64,7.0,7.0,82,0.00,,,0.00,Wunderground v.1.15,2013-07-03 12:58:00,
2013-07-03 09:03:00,83.5,77.1,30.07,East,100,5.0,6.0,81,0.00,,,0.00,Wunderground v.1.15,2013-07-03 13:03:00,
2013-07-03 09:08:00,83.6,76.4,30.07,ESE,113,10.0,10.0,79,0.00,,,0.00,Wunderground v.1.15,2013-07-03 13:08:00,
2013-07-03 09:13:00,83.8,75.8,30.07,ESE,123,5.0,6.0,77,0.00,,,0.00,Wunderground v.1.15,2013-07-03 13:13:00,
2013-07-03 09:18:00,84.2,75.8,30.08,ESE,116,5.0,12.0,76,0.00,,,0.00,Wunderground v.1.15,2013-07-03 13:18:00,
2013-07-03 09:23:00,84.3,76.3,30.08,SE,127,6.0,10.0,77,0.00,,,0.00,Wunderground v.1.15,2013-07-03 13:23:00,
2013-07-03 09:25:00,84.3,76.7,30.08,ENE,65,6.0,10.0,78,0.00,,,0.00,Wunderground v.1.15,2013-07-03 13:25:00,
2013-07-03 09:26:00,84.4,76.8,30.08,SE,130,7.0,10.0,78,0.00,,,0.00,Wunderground v.1.15,2013-07-03 13:26:00,
2013-07-03 09:31:00,84.2,76.6,30.08,NE,42,5.0,7.0,78,0.00,,,0.00,Wunderground v.1.15,2013-07-03 13:31:00,
2013-07-03 09:36:00,84.2,76.2,30.08,East,79,2.0,7.0,77,0.00,,,0.00,Wunderground v.1.15,2013-07-03 13:36:00,
2013-07-03 09:37:00,84.2,76.2,30.08,East,92,5.0,7.0,77,0.00,,,0.00,Wunderground v.1.15,2013-07-03 13:37:00,
2013-07-03 09:42:00,84.4,76.0,30.08,SE,126,1.0,10.0,76,0.00,,,0.00,Wunderground v.1.15,2013-07-03 13:42:00,
2013-07-03 09:47:00,84.8,76.0,30.08,ESE,116,5.0,10.0,75,0.00,,,0.00,Wunderground v.1.15,2013-07-03 13:47:00,
2013-07-03 09:53:00,85.5,76.3,30.08,ESE,110,6.0,8.0,74,0.00,,,0.00,Wunderground v.1.15,2013-07-03 13:53:00,
2013-07-03 09:58:00,85.9,76.2,30.08,East,80,4.0,9.0,73,0.00,,,0.00,Wunderground v.1.15,2013-07-03 13:58:00,
2013-07-03 10:03:00,86.1,76.4,30.08,East,88,7.0,14.0,73,0.00,,,0.00,Wunderground v.1.15,2013-07-03 14:03:00,
2013-07-03 10:06:00,86.0,75.9,30.09,ESE,113,5.0,14.0,72,0.00,,,0.00,Wunderground v.1.15,2013-07-03 14:06:00,
2013-07-03 10:09:00,86.0,76.3,30.08,SSE,147,3.0,5.0,73,0.00,,,0.00,Wunderground v.1.15,2013-07-03 14:09:00,
2013-07-03 10:14:00,86.2,76.9,30.09,East,97,5.0,7.0,74,0.00,,,0.00,Wunderground v.1.15,2013-07-03 14:14:00,
2013-07-03 10:18:00,86.0,76.7,30.09,East,86,1.0,12.0,74,0.00,,,0.00,Wunderground v.1.15,2013-07-03 14:18:00,
2013-07-03 10:24:00,85.6,76.8,30.09,East,100,3.0,6.0,75,0.00,,,0.00,Wunderground v.1.15,2013-07-03 14:24:00,
2013-07-03 10:29:00,85.6,76.8,30.09,ESE,114,2.0,7.0,75,0.00,,,0.00,Wunderground v.1.15,2013-07-03 14:29:00,
2013-07-03 10:31:00,85.5,76.7,30.09,SSE,165,4.0,9.0,75,0.00,,,0.00,Wunderground v.1.15,2013-07-03 14:31:00,
2013-07-03 10:37:00,85.4,76.6,30.09,NE,40,4.0,9.0,75,0.00,,,0.00,Wunderground v.1.15,2013-07-03 14:37:00,
2013-07-03 10:38:00,85.3,76.9,30.09,SSE,158,2.0,11.0,76,0.00,,,0.00,Wunderground v.1.15,2013-07-03 14:38:00,
2013-07-03 10:43:00,85.3,76.9,30.09,ENE,74,4.0,6.0,76,0.00,,,0.00,Wunderground v.1.15,2013-07-03 14:43:00,
2013-07-03 10:48:00,85.5,77.1,30.09,SE,142,9.0,9.0,76,0.00,,,0.00,Wunderground v.1.15,2013-07-03 14:48:00,
2013-07-03 10:52:00,85.8,77.8,30.09,East,90,4.0,12.0,77,0.00,,,0.00,Wunderground v.1.15,2013-07-03 14:52:00,
2013-07-03 10:57:00,86.3,78.2,30.09,SE,127,4.0,12.0,77,0.00,,,0.00,Wunderground v.1.15,2013-07-03 14:57:00,
2013-07-03 10:58:00,86.4,78.3,30.09,ESE,106,6.0,12.0,77,0.00,,,0.00,Wunderground v.1.15,2013-07-03 14:58:00,
2013-07-03 11:03:00,86.7,77.8,30.09,ENE,74,9.0,10.0,75,0.00,,,0.00,Wunderground v.1.15,2013-07-03 15:03:00,
2013-07-03 11:08:00,87.0,78.1,30.09,East,101,3.0,10.0,75,0.00,,,0.00,Wunderground v.1.15,2013-07-03 15:08:00,
2013-07-03 11:13:00,87.4,78.5,30.10,SE,137,5.0,12.0,75,0.00,,,0.00,Wunderground v.1.15,2013-07-03 15:13:00,
2013-07-03 11:15:00,87.5,78.6,30.10,ESE,108,6.0,12.0,75,0.00,,,0.00,Wunderground v.1.15,2013-07-03 15:15:00,
2013-07-03 11:20:00,87.7,78.4,30.10,ENE,58,3.0,7.0,74,0.00,,,0.00,Wunderground v.1.15,2013-07-03 15:20:00,
2013-07-03 11:25:00,87.3,78.4,30.10,ENE,59,6.0,7.0,75,0.00,,,0.00,Wunderground v.1.15,2013-07-03 15:25:00,
2013-07-03 11:28:00,86.9,78.0,30.10,NNE,18,5.0,9.0,75,0.00,,,0.00,Wunderground v.1.15,2013-07-03 15:28:00,
2013-07-03 11:33:00,86.4,77.9,30.10,SE,131,11.0,15.0,76,0.00,,,0.00,Wunderground v.1.15,2013-07-03 15:33:00,
2013-07-03 11:38:00,86.0,77.1,30.09,NNE,33,2.0,15.0,75,0.00,,,0.00,Wunderground v.1.15,2013-07-03 15:38:00,
2013-07-03 11:43:00,85.9,77.1,30.09,NE,46,9.0,13.0,75,0.00,,,0.00,Wunderground v.1.15,2013-07-03 15:43:00,
2013-07-03 11:48:00,86.0,76.7,30.09,ENE,78,6.0,13.0,74,0.00,,,0.00,Wunderground v.1.15,2013-07-03 15:48:00,
2013-07-03 11:52:00,86.2,77.3,30.10,East,101,3.0,10.0,75,0.00,,,0.00,Wunderground v.1.15,2013-07-03 15:52:00,
2013-07-03 11:54:00,86.2,77.3,30.10,NE,50,5.0,10.0,75,0.00,,,0.00,Wunderground v.1.15,2013-07-03 15:54:00,
2013-07-03 11:59:00,86.0,77.9,30.10,ENE,62,5.0,10.0,77,0.00,,,0.00,Wunderground v.1.15,2013-07-03 15:59:00,
2013-07-03 12:04:00,86.1,78.0,30.10,SSE,150,2.0,10.0,77,0.00,,,0.00,Wunderground v.1.15,2013-07-03 16:04:00,
2013-07-03 12:10:00,86.2,77.7,30.10,ESE,115,3.0,5.0,76,0.00,,,0.00,Wunderground v.1.15,2013-07-03 16:10:00,
2013-07-03 12:15:00,86.6,78.1,30.10,NE,46,6.0,11.0,76,0.00,,,0.00,Wunderground v.1.15,2013-07-03 16:15:00,
2013-07-03 12:20:00,87.0,78.5,30.10,ENE,60,9.0,9.0,76,0.00,,,0.00,Wunderground v.1.15,2013-07-03 16:20:00,
2013-07-03 12:25:00,87.2,78.7,30.10,ENE,71,4.0,10.0,76,0.00,,,0.00,Wunderground v.1.15,2013-07-03 16:25:00,
2013-07-03 12:31:00,87.4,78.1,30.10,East,97,7.0,9.0,74,0.00,,,0.00,Wunderground v.1.15,2013-07-03 16:31:00,
2013-07-03 12:36:00,87.5,76.9,30.10,SSE,158,7.0,13.0,71,0.00,,,0.00,Wunderground v.1.15,2013-07-03 16:36:00,
2013-07-03 12:41:00,87.5,77.4,30.09,ESE,119,5.0,10.0,72,0.00,,,0.00,Wunderground v.1.15,2013-07-03 16:41:00,
2013-07-03 12:46:00,87.4,77.7,30.09,ESE,112,7.0,13.0,73,0.00,,,0.00,Wunderground v.1.15,2013-07-03 16:46:00,
2013-07-03 12:51:00,87.7,77.5,30.09,ENE,64,3.0,10.0,72,0.00,,,0.00,Wunderground v.1.15,2013-07-03 16:51:00,
2013-07-03 12:56:00,88.0,77.8,30.09,East,89,4.0,12.0,72,0.00,,,0.00,Wunderground v.1.15,2013-07-03 16:56:00,
2013-07-03 13:01:00,88.2,78.0,30.09,SE,138,3.0,5.0,72,0.00,,,0.00,Wunderground v.1.15,2013-07-03 17:01:00,
2013-07-03 13:06:00,88.5,77.9,30.09,ENE,63,2.0,11.0,71,0.00,,,0.00,Wunderground v.1.15,2013-07-03 17:06:00,
2013-07-03 13:11:00,88.7,77.7,30.09,East,88,2.0,7.0,70,0.00,,,0.00,Wunderground v.1.15,2013-07-03 17:11:00,
2013-07-03 13:17:00,88.4,77.8,30.08,ESE,110,4.0,15.0,71,0.00,,,0.00,Wunderground v.1.15,2013-07-03 17:17:00,
2013-07-03 13:22:00,88.2,78.0,30.08,SE,146,4.0,10.0,72,0.00,,,0.00,Wunderground v.1.15,2013-07-03 17:22:00,
2013-07-03 13:28:00,88.3,78.1,30.08,East,98,5.0,14.0,72,0.00,,,0.00,Wunderground v.1.15,2013-07-03 17:28:00,
2013-07-03 13:33:00,88.6,78.4,30.08,SE,139,2.0,9.0,72,0.00,,,0.00,Wunderground v.1.15,2013-07-03 17:33:00,
2013-07-03 13:38:00,89.2,78.6,30.08,NE,52,5.0,14.0,71,0.00,,,0.00,Wunderground v.1.15,2013-07-03 17:38:00,
2013-07-03 13:43:00,89.5,78.4,30.08,NE,42,5.0,12.0,70,0.00,,,0.00,Wunderground v.1.15,2013-07-03 17:43:00,
2013-07-03 13:48:00,89.2,78.1,30.08,East,82,4.0,12.0,70,0.00,,,0.00,Wunderground v.1.15,2013-07-03 17:48:00,
2013-07-03 13:53:00,88.8,78.2,30.07,ESE,110,0.0,11.0,71,0.00,,,0.00,Wunderground v.1.15,2013-07-03 17:53:00,
2013-07-03 13:58:00,88.6,78.0,30.07,East,85,4.0,11.0,71,0.00,,,0.00,Wunderground v.1.15,2013-07-03 17:58:00,
2013-07-03 14:03:00,87.8,77.2,30.07,SE,137,3.0,9.0,71,0.00,,,0.00,Wunderground v.1.15,2013-07-03 18:03:00,
2013-07-03 14:08:00,87.7,77.1,30.07,East,99,4.0,9.0,71,0.00,,,0.00,Wunderground v.1.15,2013-07-03 18:08:00,
2013-07-03 14:13:00,87.9,77.7,30.07,East,101,2.0,10.0,72,0.00,,,0.00,Wunderground v.1.15,2013-07-03 18:13:00,
2013-07-03 14:19:00,88.2,78.0,30.07,East,95,2.0,10.0,72,0.00,,,0.00,Wunderground v.1.15,2013-07-03 18:19:00,
2013-07-03 14:24:00,88.1,78.3,30.07,ESE,104,4.0,10.0,73,0.00,,,0.00,Wunderground v.1.15,2013-07-03 18:24:00,
2013-07-03 14:29:00,88.0,78.3,30.07,ENE,65,4.0,16.0,73,0.00,,,0.00,Wunderground v.1.15,2013-07-03 18:29:00,
2013-07-03 14:34:00,88.1,77.5,30.07,East,97,4.0,13.0,71,0.00,,,0.00,Wunderground v.1.15,2013-07-03 18:34:00,
2013-07-03 14:39:00,88.4,78.2,30.06,ESE,112,6.0,13.0,72,0.00,,,0.00,Wunderground v.1.15,2013-07-03 18:39:00,
2013-07-03 14:44:00,88.7,78.1,30.06,East,83,4.0,10.0,71,0.00,,,0.00,Wunderground v.1.15,2013-07-03 18:44:00,
2013-07-03 14:49:00,88.7,78.1,30.06,East,80,5.0,10.0,71,0.00,,,0.00,Wunderground v.1.15,2013-07-03 18:49:00,
2013-07-03 14:54:00,88.5,77.5,30.06,SSE,167,3.0,8.0,70,0.00,,,0.00,Wunderground v.1.15,2013-07-03 18:54:00,
2013-07-03 15:00:00,88.5,77.9,30.06,SSE,152,5.0,5.0,71,0.00,,,0.00,Wunderground v.1.15,2013-07-03 19:00:00,
2013-07-03 15:05:00,88.4,77.8,30.06,SE,141,4.0,11.0,71,0.00,,,0.00,Wunderground v.1.15,2013-07-03 19:05:00,
2013-07-03 15:11:00,88.6,78.0,30.06,South,171,3.0,5.0,71,0.00,,,0.00,Wunderground v.1.15,2013-07-03 19:11:00,
2013-07-03 15:16:00,89.1,78.5,30.06,SE,129,3.0,6.0,71,0.00,,,0.00,Wunderground v.1.15,2013-07-03 19:16:00,
2013-07-03 15:21:00,89.0,77.9,30.06,East,87,7.0,7.0,70,0.00,,,0.00,Wunderground v.1.15,2013-07-03 19:21:00,
2013-07-03 15:26:00,88.7,77.7,30.05,ESE,115,2.0,12.0,70,0.00,,,0.00,Wunderground v.1.15,2013-07-03 19:26:00,
2013-07-03 15:31:00,88.5,77.9,30.05,SE,142,5.0,5.0,71,0.00,,,0.00,Wunderground v.1.15,2013-07-03 19:31:00,
2013-07-03 15:36:00,88.3,78.1,30.05,ESE,110,1.0,11.0,72,0.00,,,0.00,Wunderground v.1.15,2013-07-03 19:36:00,
2013-07-03 15:41:00,88.1,77.9,30.05,SSE,151,5.0,11.0,72,0.00,,,0.00,Wunderground v.1.15,2013-07-03 19:41:00,
2013-07-03 15:47:00,88.0,78.3,30.05,SE,125,4.0,11.0,73,0.00,,,0.00,Wunderground v.1.15,2013-07-03 19:47:00,
2013-07-03 15:52:00,88.0,77.8,30.05,ENE,68,7.0,7.0,72,0.00,,,0.00,Wunderground v.1.15,2013-07-03 19:52:00,
2013-07-03 15:57:00,88.0,78.3,30.04,ENE,78,3.0,10.0,73,0.00,,,0.00,Wunderground v.1.15,2013-07-03 19:57:00,
2013-07-03 16:02:00,88.4,78.2,30.04,South,171,5.0,11.0,72,0.00,,,0.00,Wunderground v.1.15,2013-07-03 20:02:00,
2013-07-03 16:07:00,88.8,78.2,30.04,SE,130,2.0,11.0,71,0.00,,,0.00,Wunderground v.1.15,2013-07-03 20:07:00,
2013-07-03 16:12:00,89.1,78.0,30.04,East,100,3.0,9.0,70,0.00,,,0.00,Wunderground v.1.15,2013-07-03 20:12:00,
2013-07-03 16:17:00,88.9,78.3,30.04,East,100,4.0,11.0,71,0.00,,,0.00,Wunderground v.1.15,2013-07-03 20:17:00,
2013-07-03 16:23:00,88.0,76.1,30.04,ESE,113,9.0,13.0,68,0.00,,,0.00,Wunderground v.1.15,2013-07-03 20:23:00,
2013-07-03 16:28:00,86.5,75.1,30.04,ESE,108,5.0,14.0,69,0.00,,,0.00,Wunderground v.1.15,2013-07-03 20:28:00,
2013-07-03 16:33:00,86.1,74.7,30.04,NE,54,4.0,13.0,69,0.00,,,0.00,Wunderground v.1.15,2013-07-03 20:33:00,
2013-07-03 16:39:00,86.1,74.7,30.04,SE,140,7.0,13.0,69,0.00,,,0.00,Wunderground v.1.15,2013-07-03 20:39:00,
2013-07-03 16:44:00,86.5,75.5,30.05,ESE,112,8.0,11.0,70,0.00,,,0.00,Wunderground v.1.15,2013-07-03 20:44:00,
2013-07-03 16:49:00,86.8,76.3,30.05,ESE,120,3.0,4.0,71,0.00,,,0.00,Wunderground v.1.15,2013-07-03 20:49:00,
2013-07-03 16:54:00,86.9,76.4,30.06,NE,46,5.0,17.0,71,0.00,,,0.00,Wunderground v.1.15,2013-07-03 20:54:00,
2013-07-03 16:59:00,85.1,75.1,30.06,East,89,7.0,7.0,72,0.00,,,0.00,Wunderground v.1.15,2013-07-03 20:59:00,
2013-07-03 17:04:00,83.6,74.4,30.06,ENE,77,3.0,14.0,74,0.00,,,0.00,Wunderground v.1.15,2013-07-03 21:04:00,
2013-07-03 17:09:00,82.4,72.0,30.05,ESE,120,0.0,14.0,71,0.00,,,0.00,Wunderground v.1.15,2013-07-03 21:09:00,
2013-07-03 17:14:00,82.0,71.7,30.05,SE,132,5.0,12.0,71,0.00,,,0.00,Wunderground v.1.15,2013-07-03 21:14:00,
2013-07-03 17:19:00,81.9,72.4,30.04,ESE,123,4.0,9.0,73,0.00,,,0.00,Wunderground v.1.15,2013-07-03 21:19:00,
2013-07-03 17:24:00,82.1,73.4,30.04,ESE,112,0.0,9.0,75,0.00,,,0.00,Wunderground v.1.15,2013-07-03 21:24:00,
2013-07-03 17:30:00,82.5,74.2,30.04,SSE,155,0.0,3.0,76,0.00,,,0.00,Wunderground v.1.15,2013-07-03 21:30:00,
2013-07-03 17:35:00,82.9,74.2,30.04,SSE,156,1.0,9.0,75,0.00,,,0.00,Wunderground v.1.15,2013-07-03 21:35:00,
2013-07-03 17:40:00,83.2,72.8,30.04,SSE,154,1.0,3.0,71,0.00,,,0.00,Wunderground v.1.15,2013-07-03 21:40:00,
2013-07-03 17:45:00,83.6,73.2,30.04,SE,132,9.0,10.0,71,0.00,,,0.00,Wunderground v.1.15,2013-07-03 21:45:00,
2013-07-03 17:50:00,83.7,73.7,30.04,SE,138,4.0,4.0,72,0.00,,,0.00,Wunderground v.1.15,2013-07-03 21:50:00,
2013-07-03 17:55:00,83.9,73.9,30.04,ENE,75,3.0,10.0,72,0.00,,,0.00,Wunderground v.1.15,2013-07-03 21:55:00,
2013-07-03 18:00:00,84.1,74.9,30.04,ESE,118,5.0,5.0,74,0.00,,,0.00,Wunderground v.1.15,2013-07-03 22:00:00,
2013-07-03 18:05:00,84.4,75.6,30.05,ENE,66,6.0,7.0,75,0.00,,,0.00,Wunderground v.1.15,2013-07-03 22:05:00,
2013-07-03 18:10:00,84.5,76.1,30.04,SE,133,3.0,5.0,76,0.00,,,0.00,Wunderground v.1.15,2013-07-03 22:10:00,
2013-07-03 18:15:00,84.4,76.4,30.05,ENE,63,3.0,9.0,77,0.00,,,0.00,Wunderground v.1.15,2013-07-03 22:15:00,
2013-07-03 18:20:00,84.3,76.3,30.05,SE,125,5.0,9.0,77,0.00,,,0.00,Wunderground v.1.15,2013-07-03 22:20:00,
2013-07-03 18:26:00,84.1,76.1,30.05,SE,140,4.0,9.0,77,0.00,,,0.00,Wunderground v.1.15,2013-07-03 22:26:00,
2013-07-03 18:31:00,83.9,76.3,30.06,SSE,148,1.0,5.0,78,0.00,,,0.00,Wunderground v.1.15,2013-07-03 22:31:00,
2013-07-03 18:36:00,83.8,76.6,30.06,ENE,70,2.0,10.0,79,0.00,,,0.00,Wunderground v.1.15,2013-07-03 22:36:00,
2013-07-03 18:42:00,83.9,77.1,30.06,SSE,150,2.0,7.0,80,0.00,,,0.00,Wunderground v.1.15,2013-07-03 22:42:00,
2013-07-03 18:47:00,83.9,77.1,30.06,SE,130,4.0,11.0,80,0.00,,,0.00,Wunderground v.1.15,2013-07-03 22:47:00,
2013-07-03 18:52:00,83.9,76.3,30.06,SSE,158,7.0,7.0,78,0.00,,,0.00,Wunderground v.1.15,2013-07-03 22:52:00,
2013-07-03 18:57:00,83.8,75.4,30.06,SSE,158,4.0,7.0,76,0.00,,,0.00,Wunderground v.1.15,2013-07-03 22:57:00,
2013-07-03 19:02:00,83.8,74.6,30.06,SSE,148,5.0,5.0,74,0.00,,,0.00,Wunderground v.1.15,2013-07-03 23:02:00,
2013-07-03 19:07:00,84.0,74.0,30.05,ESE,110,1.0,9.0,72,0.00,,,0.00,Wunderground v.1.15,2013-07-03 23:07:00,
2013-07-03 19:12:00,84.0,74.0,30.06,ESE,121,0.0,6.0,72,0.00,,,0.00,Wunderground v.1.15,2013-07-03 23:12:00,
2013-07-03 19:17:00,84.2,75.0,30.06,SSE,150,2.0,6.0,74,0.00,,,0.00,Wunderground v.1.15,2013-07-03 23:17:00,
2013-07-03 19:22:00,84.2,75.8,30.06,ESE,108,3.0,3.0,76,0.00,,,0.00,Wunderground v.1.15,2013-07-03 23:22:00,
2013-07-03 19:27:00,84.2,77.0,30.06,ESE,110,2.0,6.0,79,0.00,,,0.00,Wunderground v.1.15,2013-07-03 23:27:00,
2013-07-03 19:33:00,83.8,76.6,30.06,ESE,122,3.0,9.0,79,0.00,,,0.00,Wunderground v.1.15,2013-07-03 23:33:00,
2013-07-03 19:39:00,83.5,76.3,30.06,NE,52,8.0,9.0,79,0.00,,,0.00,Wunderground v.1.15,2013-07-03 23:39:00,
2013-07-03 19:44:00,83.0,75.8,30.07,ESE,109,2.0,10.0,79,0.00,,,0.00,Wunderground v.1.15,2013-07-03 23:44:00,
2013-07-03 19:49:00,82.7,76.3,30.07,NE,54,3.0,10.0,81,0.00,,,0.00,Wunderground v.1.15,2013-07-03 23:49:00,
2013-07-03 19:54:00,82.4,76.3,30.07,ESE,106,4.0,5.0,82,0.00,,,0.00,Wunderground v.1.15,2013-07-03 23:54:00,
2013-07-03 19:59:00,82.2,76.5,30.07,SE,137,4.0,9.0,83,0.00,,,0.00,Wunderground v.1.15,2013-07-03 23:59:00,
2013-07-03 20:04:00,82.1,76.4,30.07,ENE,63,2.0,7.0,83,0.00,,,0.00,Wunderground v.1.15,2013-07-04 00:04:00,
2013-07-03 20:09:00,82.1,76.8,30.07,East,96,2.0,3.0,84,0.00,,,0.00,Wunderground v.1.15,2013-07-04 00:09:00,
2013-07-03 20:14:00,82.2,76.9,30.07,SE,142,2.0,5.0,84,0.00,,,0.00,Wunderground v.1.15,2013-07-04 00:14:00,
2013-07-03 20:19:00,82.2,76.2,30.08,ESE,119,1.0,2.0,82,0.00,,,0.00,Wunderground v.1.15,2013-07-04 00:19:00,
2013-07-03 20:25:00,82.3,75.5,30.08,ESE,119,2.0,7.0,80,0.00,,,0.00,Wunderground v.1.15,2013-07-04 00:25:00,
2013-07-03 20:30:00,82.5,75.3,30.08,ESE,119,0.0,2.0,79,0.00,,,0.00,Wunderground v.1.15,2013-07-04 00:30:00,
2013-07-03 20:35:00,82.6,75.4,30.08,East,88,3.0,6.0,79,0.00,,,0.00,Wunderground v.1.15,2013-07-04 00:35:00,
2013-07-03 20:40:00,82.5,75.3,30.08,SE,135,1.0,4.0,79,0.00,,,0.00,Wunderground v.1.15,2013-07-04 00:40:00,
2013-07-03 20:45:00,82.6,75.4,30.08,SE,126,2.0,4.0,79,0.00,,,0.00,Wunderground v.1.15,2013-07-04 00:45:00,
2013-07-03 20:50:00,82.7,75.5,30.08,ESE,112,3.0,4.0,79,0.00,,,0.00,Wunderground v.1.15,2013-07-04 00:50:00,
2013-07-03 20:55:00,82.8,75.6,30.08,ENE,63,1.0,5.0,79,0.00,,,0.00,Wunderground v.1.15,2013-07-04 00:55:00,
2013-07-03 21:00:00,82.7,75.5,30.08,SSE,152,2.0,5.0,79,0.00,,,0.00,Wunderground v.1.15,2013-07-04 01:00:00,
2013-07-03 21:06:00,82.6,75.4,30.08,East,90,3.0,7.0,79,0.00,,,0.00,Wunderground v.1.15,2013-07-04 01:06:00,
2013-07-03 21:11:00,82.6,75.8,30.08,ENE,63,4.0,4.0,80,0.00,,,0.00,Wunderground v.1.15,2013-07-04 01:11:00,
2013-07-03 21:16:00,82.5,75.3,30.08,East,89,3.0,5.0,79,0.00,,,0.00,Wunderground v.1.15,2013-07-04 01:16:00,
2013-07-03 21:21:00,82.5,75.3,30.08,NE,53,3.0,3.0,79,0.00,,,0.00,Wunderground v.1.15,2013-07-04 01:21:00,
2013-07-03 21:26:00,82.5,75.7,30.08,ENE,67,3.0,4.0,80,0.00,,,0.00,Wunderground v.1.15,2013-07-04 01:26:00,
2013-07-03 21:32:00,82.4,76.0,30.08,ENE,73,1.0,3.0,81,0.00,,,0.00,Wunderground v.1.15,2013-07-04 01:32:00,
2013-07-03 21:37:00,82.5,76.1,30.08,East,81,1.0,5.0,81,0.00,,,0.00,Wunderground v.1.15,2013-07-04 01:37:00,
2013-07-03 21:42:00,82.4,76.3,30.08,ENE,63,3.0,4.0,82,0.00,,,0.00,Wunderground v.1.15,2013-07-04 01:42:00,
2013-07-03 21:47:00,82.6,76.2,30.08,ESE,102,4.0,5.0,81,0.00,,,0.00,Wunderground v.1.15,2013-07-04 01:47:00,
2013-07-03 21:52:00,82.7,75.9,30.08,NNE,12,3.0,4.0,80,0.00,,,0.00,Wunderground v.1.15,2013-07-04 01:52:00,
2013-07-03 21:57:00,82.8,76.0,30.08,SE,144,3.0,6.0,80,0.00,,,0.00,Wunderground v.1.15,2013-07-04 01:57:00,
2013-07-03 22:02:00,82.8,76.0,30.08,ENE,58,3.0,4.0,80,0.00,,,0.00,Wunderground v.1.15,2013-07-04 02:02:00,
2013-07-03 22:07:00,82.9,76.1,30.09,ENE,71,3.0,4.0,80,0.00,,,0.00,Wunderground v.1.15,2013-07-04 02:07:00,
2013-07-03 22:13:00,82.9,76.5,30.09,NE,47,3.0,4.0,81,0.00,,,0.00,Wunderground v.1.15,2013-07-04 02:13:00,
2013-07-03 22:18:00,82.9,76.1,30.09,ESE,102,1.0,6.0,80,0.00,,,0.00,Wunderground v.1.15,2013-07-04 02:18:00,
2013-07-03 22:23:00,82.8,76.4,30.09,ESE,108,2.0,5.0,81,0.00,,,0.00,Wunderground v.1.15,2013-07-04 02:23:00,
2013-07-03 22:28:00,82.7,76.3,30.09,ENE,73,0.0,5.0,81,0.00,,,0.00,Wunderground v.1.15,2013-07-04 02:28:00,
2013-07-03 22:33:00,82.6,76.5,30.10,ENE,77,3.0,3.0,82,0.00,,,0.00,Wunderground v.1.15,2013-07-04 02:33:00,
2013-07-03 22:38:00,82.6,76.5,30.10,East,82,0.0,4.0,82,0.00,,,0.00,Wunderground v.1.15,2013-07-04 02:38:00,
2013-07-03 22:44:00,82.6,76.9,30.10,ENE,71,0.0,2.0,83,0.00,,,0.00,Wunderground v.1.15,2013-07-04 02:44:00,
2013-07-03 22:49:00,82.6,76.9,30.10,NE,51,0.0,2.0,83,0.00,,,0.00,Wunderground v.1.15,2013-07-04 02:49:00,
2013-07-03 22:54:00,82.7,77.7,30.11,NE,54,3.0,4.0,85,0.44,,,0.02,Wunderground v.1.15,2013-07-04 02:54:00,
2013-07-03 22:59:00,81.4,74.6,30.10,South,187,2.0,3.0,80,0.19,,,0.14,Wunderground v.1.15,2013-07-04 02:59:00,
2013-07-03 23:04:00,80.4,75.1,30.09,East,96,4.0,6.0,84,0.07,,,0.14,Wunderground v.1.15,2013-07-04 03:04:00,
2013-07-03 23:09:00,80.1,75.9,30.09,East,88,6.0,6.0,87,0.05,,,0.14,Wunderground v.1.15,2013-07-04 03:09:00,
2013-07-03 23:14:00,80.1,75.9,30.10,East,99,5.0,9.0,87,0.00,,,0.14,Wunderground v.1.15,2013-07-04 03:14:00,
2013-07-03 23:19:00,80.2,75.6,30.10,SE,135,5.0,7.0,86,0.00,,,0.14,Wunderground v.1.15,2013-07-04 03:19:00,
2013-07-03 23:24:00,80.4,75.8,30.10,East,92,4.0,8.0,86,0.00,,,0.14,Wunderground v.1.15,2013-07-04 03:24:00,
2013-07-03 23:29:00,80.7,75.8,30.10,ENE,61,3.0,5.0,85,0.00,,,0.14,Wunderground v.1.15,2013-07-04 03:29:00,
2013-07-03 23:36:00,81.0,76.1,30.10,East,92,4.0,6.0,85,0.00,,,0.14,Wunderground v.1.15,2013-07-04 03:36:00,
2013-07-03 23:41:00,81.3,76.4,30.10,ENE,66,4.0,6.0,85,0.00,,,0.14,Wunderground v.1.15,2013-07-04 03:41:00,
2013-07-03 23:46:00,81.3,76.0,30.10,ESE,111,4.0,9.0,84,0.00,,,0.14,Wunderground v.1.15,2013-07-04 03:46:00,
2013-07-03 23:51:00,81.4,76.1,30.10,East,80,2.0,6.0,84,0.00,,,0.14,Wunderground v.1.15,2013-07-04 03:51:00,
2013-07-03 23:57:00,81.5,75.8,30.10,East,100,5.0,10.0,83,0.00,,,0.14,Wunderground v.1.15,2013-07-04 03:57:00,